Regional Weather Roundup
Issued by NWS

Home | Current Version | Previous Version | Text Only | Print | Product List | Glossary Off
Versions: 1 2 3 4 5 6 7 8 9 10 11 12 13 14 15 16 17 18 19 20 21 22 23 24 25 26 27 28 29 30 31 32 33 34 35 36 37 38 39 40 41 42 43 44 45 46 47 48 49 50

000
ASUS45 KBOI 230810
RWRID

IDAHO REGIONAL WEATHER ROUNDUP
NATIONAL WEATHER SERVICE BOISE ID
200 AM MDT WED MAY 23 2018

NOTE: "FAIR" INDICATES FEW OR NO CLOUDS BELOW 12000 FEET
WITH NO SIGNIFICANT WEATHER AND/OR OBSTRUCTIONS TO VISIBILITY

IDZ012-014-230900-
SOUTHWEST IDAHO


CITY           SKY/WX    TMP DP  RH WIND       PRES   REMARKS
BOISE          MOCLDY    61  51  70 SE12      29.84S
CALDWELL       MOCLDY    59  51  75 N3        29.83S
MOUNTAIN HOME  CLOUDY    57  57 100 E9        29.84F
$$

IDZ016-017-230900-
SOUTHCENTRAL IDAHO


CITY           SKY/WX    TMP DP  RH WIND       PRES   REMARKS
BURLEY         MOCLDY    53  48  83 CALM      29.89F
JEROME         PTCLDY    53  48  83 E7        29.90S
TWIN FALLS     PTCLDY    50  46  86 S9        29.89F
$$

IDZ019>023-230900-
SOUTHEAST IDAHO


CITY           SKY/WX    TMP DP  RH WIND       PRES   REMARKS
IDAHO FALLS    CLOUDY    55  48  77 SW3       29.94F
POCATELLO      LGT RAIN  55  51  86 CALM      29.93S
REXBURG        CLOUDY    55  47  74 CALM      29.94F
$$

IDZ006-010-011-018-031-032-230900-
CENTRAL IDAHO MOUNTAINS


CITY           SKY/WX    TMP DP  RH WIND       PRES   REMARKS
MCCALL         FOG       45  44  97 CALM      29.91S VSB 3/4
HAILEY         CLOUDY    50  46  87 NW7       29.97F
STANLEY          N/A     43  41  93 S5        30.01S
SALMON         MOCLDY    50  46  86 CALM      29.93S
CHALLIS        PTCLDY    52  49  89 W3        29.95F
$$

IDZ002-004-006-007-026-230900-
NORTHERN IDAHO


CITY           SKY/WX    TMP DP  RH WIND       PRES   REMARKS
LEWISTON       CLEAR     64  56  75 E12       29.79S
LOWELL           N/A     55  55 100 CALM      29.86F
COEUR D`ALENE  CLEAR     60  49  66 N3        29.84S
MULLAN PASS    CLEAR     53  40  61 SE5       30.00F
$$



USA.gov is the U.S. government's official web portal to all federal, state and local government web resources and services.